When you browse on this site, cookies collect data to enhance your experience and personalize the content and advertising you see.
Visit our Privacy Policy to learn more. By continuing to use the site, you agree to this use of cookies and data.
  • En España
  • Lista de países
  • Para 7 días
  • Temperatura del agua
  • El tiempo en el mapa
  • Informadores
  • user-avatar
    Iniciar sesión

    Tiempo cada hora Heidelberg

    Hoy, 14 Diciembre, Sábado

    Tiempo Temperatura Precipitaciones Viento Presión Humedad
    00:00 +2°C° 0 mm 6 mps 714 mmHg 80%
    01:00 +2°C° 0 mm 5 mps 714 mmHg 81%
    02:00 +1°C° 0.1 mm 5 mps 713 mmHg 82%
    03:00 +1°C° 0.1 mm 5 mps 713 mmHg 84%
    04:00 +1°C° 0.1 mm 5 mps 712 mmHg 85%
    05:00 +2°C° 1 mm 6 mps 711 mmHg 85%
    06:00 +3°C° 1 mm 6 mps 711 mmHg 85%
    07:00 +4°C° 1 mm 7 mps 711 mmHg 85%
    08:00 +4°C° 0.3 mm 7 mps 712 mmHg 81%
    09:00 +4°C° 0.3 mm 7 mps 714 mmHg 77%
    10:00 +4°C° 0.3 mm 8 mps 715 mmHg 72%
    11:00 +4°C° 0.1 mm 8 mps 717 mmHg 71%
    12:00 +4°C° 0.1 mm 8 mps 718 mmHg 70%
    13:00 +5°C° 0.1 mm 8 mps 720 mmHg 69%
    14:00 +4°C° 0 mm 7 mps 720 mmHg 70%
    15:00 +4°C° 0 mm 6 mps 721 mmHg 71%
    16:00 +5°C° 0 mm 5 mps 721 mmHg 71%
    17:00 +5°C° 0.1 mm 5 mps 721 mmHg 74%
    18:00 +5°C° 0.1 mm 5 mps 722 mmHg 77%
    19:00 +5°C° 0.1 mm 5 mps 722 mmHg 79%
    20:00 +5°C° 0.1 mm 5 mps 722 mmHg 81%
    21:00 +5°C° 0.1 mm 4 mps 723 mmHg 82%
    22:00 +5°C° 0.1 mm 4 mps 723 mmHg 84%
    23:00 +5°C° 0 mm 3 mps 723 mmHg 86%

    Mañana, 15 Diciembre, Domingo

    Tiempo Temperatura Precipitaciones Viento Presión Humedad
    00:00 +5°C° 0 mm 3 mps 723 mmHg 88%
    01:00 +5°C° 0 mm 2 mps 723 mmHg 89%
    02:00 +5°C° 0.5 mm 3 mps 722 mmHg 91%
    03:00 +5°C° 0.5 mm 3 mps 722 mmHg 92%
    04:00 +6°C° 0.5 mm 4 mps 721 mmHg 93%
    05:00 +7°C° 0.2 mm 5 mps 721 mmHg 91%
    06:00 +7°C° 0.2 mm 6 mps 721 mmHg 88%
    07:00 +8°C° 0.2 mm 6 mps 721 mmHg 85%
    08:00 +8°C° 0.4 mm 6 mps 722 mmHg 84%
    09:00 +8°C° 0.4 mm 6 mps 723 mmHg 83%
    10:00 +8°C° 0.4 mm 6 mps 723 mmHg 82%
    11:00 +8°C° 0.6 mm 6 mps 724 mmHg 81%
    12:00 +8°C° 0.6 mm 5 mps 724 mmHg 80%
    13:00 +7°C° 0.6 mm 5 mps 725 mmHg 80%
    14:00 +7°C° 0.2 mm 4 mps 725 mmHg 81%
    15:00 +7°C° 0.2 mm 3 mps 726 mmHg 82%
    16:00 +7°C° 0.2 mm 2 mps 726 mmHg 83%
    17:00 +7°C° 0.1 mm 2 mps 727 mmHg 85%
    18:00 +6°C° 0.1 mm 2 mps 727 mmHg 86%
    19:00 +6°C° 0.1 mm 2 mps 727 mmHg 87%
    20:00 +7°C° 0.1 mm 2 mps 727 mmHg 89%
    21:00 +7°C° 0.1 mm 2 mps 727 mmHg 91%
    22:00 +7°C° 0.1 mm 2 mps 727 mmHg 93%
    23:00 +7°C° 0.1 mm 2 mps 727 mmHg 93%

    Pasado mañana, 16 Diciembre, Lunes

    Tiempo Temperatura Precipitaciones Viento Presión Humedad
    00:00 +7°C° 0.1 mm 2 mps 727 mmHg 93%
    01:00 +7°C° 0.1 mm 2 mps 727 mmHg 93%
    02:00 +7°C° 0.3 mm 2 mps 727 mmHg 93%
    03:00 +7°C° 0.3 mm 2 mps 727 mmHg 93%
    04:00 +8°C° 0.3 mm 1 mps 727 mmHg 93%
    05:00 +7°C° 0 mm 2 mps 727 mmHg 90%
    06:00 +7°C° 0 mm 2 mps 726 mmHg 88%
    07:00 +7°C° 0 mm 2 mps 726 mmHg 85%
    08:00 +7°C° 0 mm 2 mps 726 mmHg 82%
    09:00 +7°C° 0 mm 2 mps 726 mmHg 79%
    10:00 +7°C° 0 mm 2 mps 726 mmHg 76%
    11:00 +8°C° 0 mm 2 mps 726 mmHg 72%
    12:00 +9°C° 0 mm 2 mps 726 mmHg 69%
    13:00 +10°C° 0 mm 2 mps 725 mmHg 65%
    14:00 +9°C° 0 mm 2 mps 725 mmHg 67%
    15:00 +8°C° 0 mm 2 mps 725 mmHg 70%
    16:00 +9°C° 0 mm 1 mps 724 mmHg 72%
    17:00 +8°C° 0 mm 1 mps 724 mmHg 73%
    18:00 +8°C° 0 mm 1 mps 724 mmHg 75%
    19:00 +7°C° 0 mm 1 mps 724 mmHg 76%
    20:00 +7°C° 0 mm 1 mps 724 mmHg 77%
    21:00 +6°C° 0 mm 2 mps 724 mmHg 77%
    22:00 +5°C° 0 mm 2 mps 724 mmHg 78%
    23:00 +6°C° 0 mm 1 mps 724 mmHg 79%

    17 Diciembre, Martes

    Tiempo Temperatura Precipitaciones Viento Presión Humedad
    00:00 +6°C° 0 mm 1 mps 723 mmHg 79%
    01:00 +6°C° 0 mm 1 mps 723 mmHg 80%
    02:00 +6°C° 0 mm 1 mps 723 mmHg 81%
    03:00 +6°C° 0 mm 1 mps 724 mmHg 81%
    04:00 +5°C° 0 mm 0 mps 724 mmHg 82%
    05:00 +6°C° 0 mm 1 mps 724 mmHg 82%
    06:00 +6°C° 0 mm 1 mps 724 mmHg 82%
    07:00 +6°C° 0 mm 1 mps 724 mmHg 82%
    08:00 +7°C° 0 mm 1 mps 725 mmHg 81%
    09:00 +6°C° 0 mm 2 mps 725 mmHg 80%
    10:00 +6°C° 0 mm 2 mps 725 mmHg 79%
    11:00 +7°C° 0 mm 2 mps 725 mmHg 77%
    12:00 +8°C° 0 mm 2 mps 725 mmHg 75%
    13:00 +9°C° 0 mm 1 mps 725 mmHg 73%
    14:00 +9°C° 0 mm 1 mps 725 mmHg 75%
    15:00 +9°C° 0 mm 1 mps 725 mmHg 76%
    16:00 +9°C° 0 mm 1 mps 725 mmHg 78%
    17:00 +8°C° 0 mm 1 mps 726 mmHg 79%
    18:00 +8°C° 0 mm 1 mps 726 mmHg 80%
    19:00 +8°C° 0 mm 1 mps 726 mmHg 81%
    20:00 +8°C° 0 mm 1 mps 726 mmHg 81%
    21:00 +7°C° 0 mm 2 mps 726 mmHg 81%
    22:00 +7°C° 0 mm 2 mps 727 mmHg 81%
    23:00 +7°C° 0 mm 2 mps 727 mmHg 82%

    18 Diciembre, Miércoles

    Tiempo Temperatura Precipitaciones Viento Presión Humedad
    00:00 +7°C° 0 mm 1 mps 727 mmHg 84%
    01:00 +7°C° 0 mm 1 mps 727 mmHg 85%
    02:00 +7°C° 0.1 mm 1 mps 728 mmHg 86%
    03:00 +8°C° 0.1 mm 1 mps 728 mmHg 87%
    04:00 +8°C° 0.1 mm 1 mps 729 mmHg 87%
    05:00 +8°C° 0 mm 1 mps 729 mmHg 89%
    06:00 +7°C° 0 mm 1 mps 729 mmHg 90%
    07:00 +7°C° 0 mm 1 mps 729 mmHg 92%
    08:00 +7°C° 0 mm 1 mps 729 mmHg 91%
    09:00 +7°C° 0 mm 1 mps 729 mmHg 90%
    10:00 +8°C° 0 mm 1 mps 730 mmHg 90%
    11:00 +8°C° 0 mm 1 mps 730 mmHg 88%
    12:00 +8°C° 0 mm 0 mps 730 mmHg 86%
    13:00 +8°C° 0 mm 0 mps 729 mmHg 84%
    14:00 +8°C° 0 mm 0 mps 729 mmHg 86%
    15:00 +7°C° 0 mm 0 mps 729 mmHg 88%
    16:00 +7°C° 0 mm 0 mps 729 mmHg 89%
    17:00 +8°C° 0.1 mm 1 mps 729 mmHg 90%
    18:00 +8°C° 0.1 mm 1 mps 729 mmHg 91%
    19:00 +7°C° 0.1 mm 1 mps 729 mmHg 92%
    20:00 +7°C° 0 mm 1 mps 729 mmHg 93%
    21:00 +7°C° 0 mm 1 mps 729 mmHg 93%
    22:00 +6°C° 0 mm 1 mps 729 mmHg 94%
    23:00 +6°C° 0 mm 1 mps 728 mmHg 94%

    19 Diciembre, Jueves

    Tiempo Temperatura Precipitaciones Viento Presión Humedad
    00:00 +6°C° 0 mm 1 mps 728 mmHg 93%
    01:00 +6°C° 0 mm 1 mps 728 mmHg 93%
    02:00 +6°C° 0 mm 1 mps 728 mmHg 93%
    03:00 +5°C° 0 mm 1 mps 727 mmHg 93%
    04:00 +5°C° 0 mm 1 mps 727 mmHg 93%
    05:00 +5°C° 0 mm 1 mps 727 mmHg 93%
    06:00 +5°C° 0 mm 1 mps 726 mmHg 93%
    07:00 +5°C° 0 mm 1 mps 726 mmHg 93%
    08:00 +5°C° 0 mm 1 mps 726 mmHg 91%
    09:00 +4°C° 0 mm 2 mps 726 mmHg 89%
    10:00 +5°C° 0 mm 2 mps 725 mmHg 86%
    11:00 +6°C° 0 mm 2 mps 725 mmHg 83%
    12:00 +6°C° 0 mm 2 mps 724 mmHg 80%
    13:00 +7°C° 0 mm 2 mps 724 mmHg 77%
    14:00 +7°C° 0 mm 2 mps 723 mmHg 80%
    15:00 +6°C° 0 mm 2 mps 723 mmHg 82%
    16:00 +6°C° 0 mm 2 mps 723 mmHg 85%
    17:00 +5°C° 0 mm 2 mps 723 mmHg 87%
    18:00 +5°C° 0 mm 2 mps 722 mmHg 89%
    19:00 +5°C° 0 mm 1 mps 722 mmHg 90%
    20:00 +5°C° 0 mm 1 mps 722 mmHg 91%
    21:00 +5°C° 0 mm 1 mps 722 mmHg 92%
    22:00 +5°C° 0 mm 1 mps 722 mmHg 92%
    23:00 +4°C° 0 mm 1 mps 721 mmHg 93%
    Mostrar más